Weather in Gnetovo

Russia / Ryazan Oblast     54°38′42″N   39°58′54″E
В апреле 2022 года жителям России запретили посещать сайт meteo.paraplan.net по решению Генеральной прокуратуры. Аудитория сайта уменьшилась в 10 раз. Владельцы сайта не видят смысла в поддержке погодного сервера в таких условиях. Сайт будет закрыт в октябре.
temp.,
°C
wind,
m/s
gust,
m/s
humid.,
%
clouds,
%
prec.,
mm/h
press.,
hPa
HPBL,
m
4 october, tue
tue400:00+10sse614825 0.1 1008819
03:00+10sse615855 0.1 1009703
06:00+9sse615845 0.0 1010684
09:00+11sse614759 0.0 1011750
12:00+15s71665100 0.1 10112007
15:00+12s61180100 1.3 10111092
18:00+12s51185100 3.3 1011867
21:00+10ssw41090100 7.4 1012464
5 october, wed
wed500:00+9s41085100 0.1 1012677
03:00+9ssw5118358 0.3 1012899
06:00+8ssw5984100 0.2 10121111
09:00+8s5988100 0.5 10131183
12:00+8ssw4887100 1.0 10141080
15:00+9wsw4776100 1.4 10141285
18:00+7sw388789 0.2 1016395
21:00+5wsw389317 0.3 1016329
6 october, thu
thu600:00+6w3890100 0.0 1017513
03:00+5w389475 0.1 1017310
06:00+5w379377 0.0 1018291
09:00+7w368870 0.1 1018349
12:00+10wnw346784 0.1 10191172
15:00+10w2571100 0.1 1019635
18:00+8sw258661 0.0 1019223
21:00+9ssw3793100 0.1 1018268
7 october, fri
fri700:00+10sw3109497 0.1 1017402
03:00+9sw411959 0.1 1016365
06:00+9w4119699 0.0 1016425
09:00+12wnw51186100 0.0 1017727
12:00+13wnw696996 0.0 10191250
15:00+11w51074100 0.1 10201280
18:00+11wnw51169100 0.0 10211219
21:00+9w413772 0.0 1023561
8 october, sat
sat800:00+7w411900 0.0 1024345
03:00+6w27976 0.0 1025174
06:00+6wsw25965 0.0 1025104
09:00+9wsw37815 0.0 1026281
12:00+13wsw46632 0.0 1025776
15:00+14sw45575 0.0 1023954
18:00+10ssw38838 0.0 1023154
21:00+9ssw31084100 0.0 1022231